#timestamp,LO_Frequency,Hit,StdDev 
1658386815.7,286047000.3,N
1658386835.6,286047002.3,N
1658386855.4,286046999.7,N
1658386875.2,286047002.3,N
1658386895.1,286047000.1,N
1658386896.0,286047000.1,N
1658386915.8,286047002.5,N
1658386935.6,286047002.4,N
1658386955.5,286047002.3,N
1658386975.3,286047000.4,N
1658386995.2,286047000.1,N
1658387015.9,286047000.1,N
1658387035.7,286047002.7,N
1658387055.6,286047002.4,N
1658387075.4,286046999.7,N
1658387095.2,286046999.8,N
1658387115.1,286047000.2,N
1658387116.0,286047000.2,N
1658387135.8,286046999.7,N
1658387155.7,286047002.8,N
1658387175.5,286047000.2,N
1658387195.3,286047002.3,N
1658387215.2,286047000.0,N
1658387235.0,286047000.1,N
1658387235.9,286047000.1,N
1658387255.7,286047001.9,N
1658387275.6,286047002.5,N
1658387295.4,286047002.7,N
1658387315.3,286047002.8,N
1658387335.1,286047000.1,N
1658387336.0,286047000.1,N
1658387355.8,286047002.7,N
1658387375.7,286047000.3,N
1658387395.5,286047002.7,N
1658387415.3,286047002.8,N
1658387435.2,286047002.3,N
1658387455.0,286047000.2,N
1658387455.9,286047000.2,N
1658387475.8,286047002.3,N
1658387495.6,286047002.5,N
1658387515.4,286047001.3,N
1658387535.3,286047001.3,N
1658387555.1,286047002.5,N
1658387575.8,286047002.2,N
1658387595.7,286047000.9,N
1658387615.5,286047000.5,N
1658387635.4,286047000.9,N
1658387655.2,286047000.6,N
1658387675.0,286047000.4,N
1658387675.9,286047000.4,N
1658387695.8,286046999.7,N
1658387715.6,286047000.1,N
1658387735.4,286047002.8,N
1658387755.3,286047001.7,N
1658387775.1,286047002.0,N
1658387795.9,286047001.9,N
1658387815.7,286047002.2,N
1658387835.5,286047002.2,N
1658387855.4,286047002.8,N
1658387875.2,286046999.7,N
1658387895.0,286047002.8,N
1658387895.9,286047002.8,N
1658387915.8,286047000.4,N
1658387935.6,286047000.5,N
1658387955.5,286047001.1,N
1658387975.3,286047000.3,N
1658387995.1,286047005.4,Y
1658388015.9,286047007.3,P
1658388035.7,286047004.6,N
1658388055.5,286047006.0,N
1658388075.4,286047003.0,N
1658388095.2,286047005.8,N
1658388115.1,286047001.3,N
1658388116.0,286047001.3,N
1658388135.8,286047003.9,N
1658388155.6,286047004.0,N
1658388175.5,286047001.5,N
1658388195.3,286047003.9,N
1658388215.1,286047001.5,N
1658388235.9,286047001.4,N
1658388255.7,286047001.4,N
1658388275.6,286047001.6,N
1658388295.4,286047001.9,N
1658388315.2,286047002.6,N
1658388335.1,286047001.5,N
1658388336.0,286047001.5,N
1658388355.8,286047001.4,N
1658388375.6,286047001.6,N
1658388395.5,286047002.2,N
1658388415.3,286047002.3,N
1658388435.2,286047001.5,N
1658388455.9,286047002.2,N
1658388475.7,286047002.1,N
1658388495.6,286047002.5,N
1658388515.4,286047002.0,N
1658388535.2,286047001.5,N
1658388555.1,286047002.6,N
1658388556.0,286047002.6,N
1658388575.8,286047001.8,N
1658388595.7,286047001.8,N
1658388615.5,286047002.0,N
1658388635.3,286047002.7,N
1658388655.2,286047002.6,Y
1658388675.0,286046998.1,P
1658388675.9,286046998.1,N
1658388695.8,286046998.4,N
1658388715.6,286046998.2,N
1658388735.4,286046998.2,N
1658388755.3,286046998.1,N
1658388775.1,286046998.5,N
1658388795.8,286046998.5,N
1658388815.7,286046998.2,N
1658388835.5,286046998.4,N
1658388855.4,286046998.5,N
1658388875.2,286046998.2,N
1658388895.0,286046998.4,N
1658388895.9,286046998.4,N
1658388915.8,286046998.4,N
1658388935.6,286046999.3,N
1658388955.4,286046998.4,N
1658388975.3,286046998.5,N
1658388995.1,286046998.6,N
1658389015.9,286046998.4,N
1658389035.7,286046998.6,N
1658389055.5,286047000.9,N
1658389075.4,286047001.0,N
1658389095.2,286047000.5,N
1658389115.0,286046999.9,N
1658389116.0,286046999.9,N
1658389135.8,286047000.9,N
1658389155.6,286047001.2,N
1658389175.5,286047000.6,N
1658389195.3,286047000.7,N
1658389215.1,286046998.9,N
1658389235.9,286046998.3,N
1658389255.7,286046999.4,N
1658389275.6,286046996.6,Y
1658389295.4,286046998.7,P
1658389315.2,286046996.8,P
1658389335.1,286046996.7,P
1658389336.0,286046996.7,Y
1658389355.8,286047000.8,P
1658389375.7,286047000.4,N
1658389395.5,286047000.0,N
1658389415.3,286047002.3,N
1658389435.2,286047001.5,N
1658389455.0,286047002.7,N
1658389455.9,286047002.7,N
1658389475.7,286047002.6,N
1658389495.6,286047002.0,N
1658389515.4,286047000.1,N
1658389535.3,286047002.8,N
1658389555.1,286047002.5,N
1658389556.0,286047002.5,N
1658389575.8,286047002.1,N
1658389595.7,286047002.0,N
1658389615.5,286047002.8,N
1658389635.3,286047002.7,N
1658389655.2,286047002.4,N
1658389675.0,286047002.8,N
1658389675.9,286047002.8,N
1658389695.8,286047002.8,N
1658389715.6,286047002.7,N
1658389735.4,286047002.0,N
1658389755.3,286047002.4,N
1658389775.1,286046999.8,N
1658389795.8,286046999.7,N
1658389815.7,286047002.7,N
1658389835.5,286047002.4,N
1658389855.4,286047002.7,N
1658389875.2,286047002.7,N
1658389895.0,286047002.4,N
1658389895.9,286047002.4,N
1658389915.8,286047002.1,N
1658389935.6,286047001.9,N
1658389955.4,286047002.2,N
1658389975.3,286047001.9,N
1658389995.1,286047001.4,N
1658390015.9,286047001.8,N
1658390035.7,286047002.2,N
1658390055.5,286047002.1,N
1658390075.4,286047000.0,N
1658390095.2,286047001.0,N
1658390115.0,286047002.6,Y
1658390116.0,286047002.6,P
1658390135.8,286046998.6,P
1658390155.6,286047001.2,N
1658390175.5,286047001.2,N
1658390195.3,286047000.7,N
1658390215.1,286046998.1,N
1658390235.9,286046998.1,N
1658390255.7,286046998.9,N
1658390275.6,286047001.2,N
1658390295.4,286046998.3,N
1658390315.2,286046998.3,N
1658390335.1,286046998.4,N
1658390336.0,286046998.4,N
1658390355.8,286047000.1,N
1658390375.6,286047000.6,N
1658390395.5,286047000.9,N
